COSMOS 1275 DEB, 12653

Orbit data source: Space-Track

COSMOS 1275 DEB, 12653 is space debris in LEO originally from a launch on Thu, 04 Jun 1981 UTC launched from the Plesetsk Missile And Space Complex (PKMTR). Debris objects in space refer to the collection of defunct objects orbiting the Earth. Examples of debris include non-operational satellites, rocket bodies, and fragments generated from explosions, collisions, or faulty payload assembly.

Loading next visibility...
Identifier
12653, 1981-053H
Orbit
LEO
Country
Flag of CISCIS
Related business
Manufacturer
Unknown
Mission
Spacecraft
Bus & Motor
Unknown
Mass
Unknown
Launch date (UTC)
1981-06-04 (45 years ago)
Launch vehicle
Unknown
Launch site
Plesetsk Missile And Space Complex (PKMTR)
Object type
Payload
Rocket body
Debris
Shape & HBR
Unknown shape, 0.6 m
Radar Cross Section
Medium (>0.1 m² and <1 m²)

Expand to show TLE details & history
Last TLE update: 16 hours ago

TLE from 16 hours ago
0 COSMOS 1275 DEB
1 12653U 81053H   26121.98576698  .00000563  00000-0  45294-3 0  9995
2 12653  82.9319 127.7811 0032812  70.8891 318.2437 13.88564793255944
Epoch: 2026-05-01T23:39Z
TLE epoch observation values (Epoch: 2026-05-01T23:39:30.267Z)
Latitude
28.6866°
Longitude
-83.13533°
Altitude
919.355 km
Speed
7.404 km/s
True Right ascension
08h 46m 36s
True Declination
28° 32' 43"
Sunlit
Object was in daylight at epoch
Visualization orbit readout
Latitude
Unknown
Longitude
Unknown
Altitude
Unknown
Speed
Unknown
Apparent Right ascension
Unknown
Apparent Declination
Unknown
Sunlit
N/A
Visualization observer readout
Local Sidereal Time
23:03:38
Azimuth
Unknown
Elevation
Unknown
Doppler factor
Unknown
Orbital elements
Apogee altitude
954.777 km
Perigee altitude
906.813 km
Semi-major axis
7,308.932 km
Eccentricity
0.00328
Inclination
82.9319°
RAAN
127.7811°
Arg. of periapsis
70.8891°
True anomaly
317.99253°
Mean anomaly
318.2437°
Eccentric anomaly
318.11819°
Mean motion
3.47346 °/min
Orbital period
103.64 mins
BSTAR
0.00045294
Loading maneuver chart data...
Computing Atmospheric mass density...
Loading historical data...
Loading historical data...
Loading historical data...
Loading historical data...
Loading historical data...
Loading historical data...
Loading historical data...

Documentation

Showing up to 5 results
|